SAVCSAZN

Guest
Details From SAVC - Comodoro Rivadavia
To SAZN - Presidente Peron
Flight Number -
Tags Generated
Created
Modified
Stats Distance 412 nm / 764 km
Max Altitude 0 ft / 0 m
Waypoints 3
Social Downloads 0
Likes 0
Share VATSIM

Download

Looking for another format? Having issues loading an existing format? Contact us
Advertisement - Login to hide

Notes

Generated

Route

SAVC NEU SAZN

ID Type Via Altitude Latitude Longitude Leg Dist Tot Dist Heading (true) Name
O SAVC APT - 0 ft / 0 m -45.78778˚ -67.48344˚ - 0 nm - -
NEU VOR - 0 ft / 0 m -38.95028˚ -68.15472˚ 411 nm 411 nm 356° / 356° NEUQUEN VOR-DME
O SAZN APT - 0 ft / 0 m -38.94896˚ -68.17053˚ 0 nm 412 nm 276° / 276° -

Altitude Profile

Advertisement - Login to hide

Weather


0- 5 10 15 20 25 30 35+ Temperature / ° C

Clouds and Precipitation
Forecast for 2017-12-14 18:00 UTC. Updated 2 hours ago

Ground ~20,000 ft ~40,000 ft Winds

SAVC

Details ICAO SAVC (CRD)
Name COMODORO RIVADAVIA
Region Argentina
Timezone America/Argentina/Catamarca (UTC-3.0)
Stats Elevation 190 ft / 58 m (AMSL)
Location -45.785349° -67.465561°
Runways 1
Magnetic Variation 6.304° E

METAR

SAVC 141708G41KT 230V300 CAVOK 26/02 Q0999

Decode

TAF

TAF TAF SAVC 141100Z 1412/1512 27030G45KT 9999 SCT030 BKN090 TX27/1418Z TN15/1511Z PROB40 TEMPO 1412/1416 27020G35KT

Decode

Departure Runways

ID Width Length Bearing (true) Bearing (mag) Surface Threshold Offset Overrun Length
07 164 ft / 50 m 9,269 ft / 2,825 m 78.97° 72.67° Concrete 0 ft / 0 m 492 ft / 150 m
25 164 ft / 50 m 9,269 ft / 2,825 m 258.95° 252.65° Concrete 0 ft / 0 m 820 ft / 250 m

SAZN

Details ICAO SAZN (NQN)
Name PRESIDENTE PERON
Region Argentina
Timezone America/Argentina/Salta (UTC-3.0)
Stats Elevation 895 ft / 273 m (AMSL)
Location -38.949000° -68.155713°
Runways 1
Magnetic Variation 2.640° E

METAR

SAZN 141600Z 29013KT CAVOK 27/18 Q1011

Decode

TAF

TAF SAZN 141100Z 1412/1512 27010KT CAVOK TX31/1419Z TN16/1509Z BECMG 1414/1416 25020G30KT BECMG 1423/1501 23020KT

Decode

Destination Runways

ID Width Length Bearing (true) Bearing (mag) Surface Threshold Offset Overrun Length
08 147 ft / 45 m 8,411 ft / 2,564 m 90.23° 87.59° Asphalt 0 ft / 0 m 680 ft / 207 m
26 147 ft / 45 m 8,411 ft / 2,564 m 270.21° 267.57° Asphalt 0 ft / 0 m 675 ft / 206 m

Approach Navaids

Runway Type Ident Frequency Range Bearing (true) Bearing (mag) Slope Elevation
08 Localiser NE 110.30 MHz 18 nm / 33 km 92.65° 90.01° - 895 ft / 273 m (AMSL)
08 Glidescope NE 110.30 MHz 10 nm / 19 km 90.22° 87.58° 3.00° 896 ft / 273 m (AMSL)

Popular Alternatives